Change the Weather History Date:

Wednesday, November 6, 2013

  Actual Average Record
Temperature  
Mean Temperature 59 °F -  
Max Temperature 73 °F 66 °F 82 °F (1959)
Min Temperature 45 °F 40 °F 23 °F (1991)
Degree Days  
Heating Degree Days 6    
Growing Degree Days 9 (Base 50)    
Moisture  
Dew Point 50 °F    
Average Humidity 89    
Maximum Humidity 100    
Minimum Humidity 51    
Precipitation  
Precipitation 0.00 in - - ()
Sea Level Pressure  
Sea Level Pressure 30.31 in    
Wind  
Wind Speed 4 mph (NNE)    
Max Wind Speed 7 mph    
Max Gust Speed -    
Visibility 6 miles    
Events Fog    
Averages and records for this station are not official NWS values.
T = Trace of Precipitation, MM = Missing Value Source: NWS Daily Summary

Daily Weather History Graph

Daily Weather History Graph

Search for Another Location

Airport or City:

Trip Planner

Search our weather history database for the weather conditions in past years. The results will help you decide how hot, cold, wet, or windy it might be!

Date:

Astronomy

Nov. 06, 2013 Rise Set
Actual Time 6:38 AM EST 5:10 PM EST
Civil Twilight 6:12 AM EST 5:37 PM EST
Nautical Twilight 5:41 AM EST 6:08 PM EST
Astronomical Twilight 5:11 AM EST 6:38 PM EST
Moon 9:49 AM EST (11/6) 8:15 PM EST (11/6)
Length of Visible Light 11h 25m
Length of Day
10h 32m
Waxing Crescent, 13% of the Moon is Illuminated
Nov 6
Waxing Crescent
Nov 10
First Quarter
Nov 17
Full
Nov 25
Last Quarter
Dec 2
New

Hourly Weather History & Observations

Time (EST) Temp. Windchill Dew Point Humidity Pressure Visibility Wind Dir Wind Speed Gust Speed Precip Events Conditions
12:53 AM 48.9 °F - 46.9 °F 93% 30.42 in 10.0 mi NE 3.5 mph - N/A   Clear
1:53 AM 48.9 °F - 46.9 °F 93% 30.41 in 10.0 mi North 3.5 mph - N/A   Clear
2:53 AM 46.9 °F - 46.0 °F 97% 30.39 in 7.0 mi NNE 4.6 mph - N/A   Clear
3:28 AM 46.0 °F 43.9 °F 45.0 °F 96% 30.37 in 1.8 mi North 4.6 mph - N/A   Clear
3:49 AM 46.4 °F 43.5 °F 44.6 °F 93% 30.37 in 0.5 mi NNE 5.8 mph - N/A Fog Fog
3:53 AM 46.0 °F 43.1 °F 45.0 °F 96% 30.38 in 0.5 mi NNE 5.8 mph - N/A Fog Fog
3:58 AM 46.9 °F - 46.0 °F 97% 30.37 in 2.0 mi NE 5.8 mph - N/A   Clear
4:07 AM 46.9 °F - 46.9 °F 100% 30.38 in 8.0 mi NNE 4.6 mph - N/A   Clear
4:19 AM 46.0 °F 43.9 °F 45.0 °F 96% 30.37 in 1.5 mi NNE 4.6 mph - N/A   Clear
4:44 AM 46.0 °F 43.9 °F 45.0 °F 96% 30.37 in 0.8 mi NNE 4.6 mph - N/A   Clear
4:51 AM 46.4 °F 44.3 °F 44.6 °F 93% 30.37 in 1.8 mi NNE 4.6 mph - N/A   Clear
4:53 AM 46.0 °F 43.9 °F 45.0 °F 96% 30.37 in 2.0 mi NNE 4.6 mph - N/A   Clear
5:02 AM 46.0 °F 43.9 °F 45.0 °F 96% 30.37 in 1.2 mi NNE 4.6 mph - N/A   Clear
5:11 AM 46.9 °F - 46.0 °F 97% 30.37 in 3.0 mi NNE 5.8 mph - N/A   Clear
5:39 AM 46.0 °F 43.9 °F 45.0 °F 96% 30.37 in 1.8 mi NNE 4.6 mph - N/A   Clear
5:47 AM 46.4 °F 44.3 °F 44.6 °F 93% 30.37 in 0.8 mi NNE 4.6 mph - N/A   Mist
5:53 AM 45.0 °F 41.8 °F 45.0 °F 100% 30.37 in 0.5 mi NE 5.8 mph - N/A Fog Fog
6:01 AM 46.0 °F 42.5 °F 45.0 °F 96% 30.37 in 1.2 mi NNE 6.9 mph - N/A   Partly Cloudy
6:14 AM 46.0 °F 43.1 °F 45.0 °F 96% 30.37 in 1.0 mi NNE 5.8 mph - N/A   Mist
6:18 AM 46.0 °F 43.9 °F 45.0 °F 96% 30.37 in 2.0 mi NNE 4.6 mph - N/A   Partly Cloudy
6:23 AM 46.0 °F 44.8 °F 45.0 °F 96% 30.37 in 1.0 mi NNE 3.5 mph - N/A   Mist
6:29 AM 45.0 °F 42.6 °F 45.0 °F 100% 30.37 in 0.5 mi NNE 4.6 mph - N/A Fog Fog
6:36 AM 45.0 °F 43.5 °F 45.0 °F 100% 30.36 in 0.5 mi NNE 3.5 mph - N/A Fog Fog
6:48 AM 46.4 °F 44.3 °F 44.6 °F 93% 30.37 in 1.2 mi NNE 4.6 mph - N/A   Scattered Clouds
6:53 AM 46.0 °F 43.9 °F 45.0 °F 96% 30.37 in 1.8 mi NNE 4.6 mph - N/A   Partly Cloudy
7:00 AM 46.0 °F 43.9 °F 45.0 °F 96% 30.37 in 2.5 mi NNE 4.6 mph - N/A   Partly Cloudy
7:32 AM 48.9 °F - 48.0 °F 97% 30.37 in 3.0 mi NNE 4.6 mph - N/A   Clear
7:53 AM 51.1 °F - 50.0 °F 96% 30.37 in 7.0 mi NNE 5.8 mph - N/A   Clear
8:06 AM 52.0 °F - 51.1 °F 97% 30.37 in 7.0 mi NNE 5.8 mph - N/A   Partly Cloudy
8:53 AM 55.0 °F - 53.1 °F 93% 30.37 in 10.0 mi NNE 6.9 mph - N/A   Overcast
9:53 AM 60.1 °F - 52.0 °F 75% 30.36 in 10.0 mi East 3.5 mph - N/A   Mostly Cloudy
10:53 AM 64.9 °F - 52.0 °F 63% 30.35 in 10.0 mi ENE 5.8 mph - N/A   Overcast
12:53 PM 72.0 °F - 53.1 °F 51% 30.28 in 10.0 mi NE 6.9 mph - N/A   Partly Cloudy
1:53 PM 73.0 °F - 54.0 °F 51% 30.26 in 10.0 mi East 4.6 mph - N/A   Mostly Cloudy
2:53 PM 71.1 °F - 55.0 °F 57% 30.24 in 10.0 mi ENE 6.9 mph - N/A   Overcast
3:53 PM 70.0 °F - 55.9 °F 61% 30.23 in 10.0 mi ENE 6.9 mph - N/A   Overcast
4:53 PM 66.9 °F - 55.9 °F 68% 30.21 in 10.0 mi Calm Calm - N/A   Overcast
5:53 PM 66.0 °F - 55.9 °F 70% 30.21 in 10.0 mi Calm Calm - N/A   Overcast
6:53 PM 64.0 °F - 55.0 °F 73% 30.20 in 10.0 mi Calm Calm - N/A   Mostly Cloudy
7:37 PM 63.0 °F - 57.0 °F 81% 30.20 in 10.0 mi Calm Calm - N/A   Overcast
7:48 PM 62.6 °F - 57.2 °F 82% 30.20 in 10.0 mi Calm Calm - N/A   Overcast
7:53 PM 62.1 °F - 57.9 °F 86% 30.19 in 10.0 mi Calm Calm - N/A   Overcast
8:53 PM 62.1 °F - 59.0 °F 90% 30.19 in 10.0 mi Calm Calm - N/A   Overcast
9:53 PM 61.0 °F - 57.9 °F 90% 30.18 in 10.0 mi Calm Calm - N/A   Overcast
10:15 PM 61.0 °F - 59.0 °F 93% 30.17 in 10.0 mi Calm Calm - N/A   Overcast
10:46 PM 61.0 °F - 59.0 °F 93% 30.16 in 10.0 mi Calm Calm - N/A   Overcast
10:53 PM 61.0 °F - 59.0 °F 93% 30.15 in 10.0 mi Calm Calm - N/A   Overcast
11:19 PM 62.1 °F - 59.0 °F 90% 30.14 in 10.0 mi Calm Calm - N/A   Overcast
11:53 PM 61.0 °F - 59.0 °F 93% 30.13 in 10.0 mi Calm Calm - N/A   Overcast